Satellite-Ground Cal/Val Region Overpasses Predictions

Prediction of Satellite NPP Overpassing Cal/Val Region: PacNW

Region Location: (Latitude: 10.00, Longitude: 139.50) to (Latitude: 22.70, Longitude: 165.60).

Table of predicted overpasses for the next 14.0 days since TLE Epoch: 11/28/2020
Interval Starting Time Starting Location Ending Time Ending Location
1 11/28/2020 15:36:13 ( 22.69, 150.81) 11/28/2020 15:39:49 ( 10.01, 147.80)
2 11/29/2020 02:45:17 ( 10.01, 158.34) 11/29/2020 02:48:53 ( 22.69, 155.33)
3 11/29/2020 15:17:10 ( 22.68, 155.57) 11/29/2020 15:20:45 ( 10.06, 152.57)
4 11/30/2020 02:26:15 ( 10.02, 163.10) 11/30/2020 02:29:51 ( 22.70, 160.09)
5 11/30/2020 14:58:08 ( 22.67, 160.33) 11/30/2020 15:01:43 ( 10.05, 157.33)
6 12/01/2020 02:09:56 ( 19.66, 165.60) 12/01/2020 02:10:47 ( 22.65, 164.86)
7 12/01/2020 03:48:42 ( 10.04, 142.48) 12/01/2020 03:52:15 ( 22.54, 139.51)
8 12/01/2020 14:39:05 ( 22.66, 165.09) 12/01/2020 14:42:40 ( 10.04, 162.09)
9 12/01/2020 16:20:35 ( 22.65, 139.71) 12/01/2020 16:20:49 ( 21.83, 139.50)
10 12/02/2020 03:29:40 ( 10.05, 147.24) 12/02/2020 03:33:15 ( 22.67, 144.24)
11 12/02/2020 16:01:33 ( 22.64, 144.47) 12/02/2020 16:05:08 ( 10.02, 141.47)
12 12/03/2020 03:10:38 ( 10.05, 152.00) 12/03/2020 03:14:13 ( 22.68, 149.00)
13 12/03/2020 15:42:29 ( 22.69, 149.24) 12/03/2020 15:46:05 ( 10.01, 146.22)
14 12/04/2020 02:51:34 ( 10.01, 156.77) 12/04/2020 02:55:10 ( 22.69, 153.76)
15 12/04/2020 15:23:27 ( 22.68, 154.00) 12/04/2020 15:27:03 ( 10.00, 150.98)
16 12/05/2020 02:32:32 ( 10.02, 161.53) 12/05/2020 02:36:08 ( 22.70, 158.51)
17 12/05/2020 15:04:24 ( 22.67, 158.75) 12/05/2020 15:07:59 ( 10.05, 155.75)
18 12/06/2020 02:14:20 ( 13.02, 165.59) 12/06/2020 02:17:04 ( 22.65, 163.28)
19 12/06/2020 03:54:59 ( 10.04, 140.91) 12/06/2020 03:56:42 ( 16.09, 139.50)
20 12/06/2020 14:45:22 ( 22.66, 163.51) 12/06/2020 14:48:57 ( 10.04, 160.51)
21 12/07/2020 03:35:57 ( 10.05, 145.66) 12/07/2020 03:39:32 ( 22.67, 142.66)
22 12/07/2020 14:29:30 ( 11.44, 165.59) 12/07/2020 14:29:54 ( 10.03, 165.27)
23 12/07/2020 16:07:48 ( 22.70, 142.90) 12/07/2020 16:11:24 ( 10.02, 139.89)
24 12/08/2020 03:16:53 ( 10.00, 150.43) 12/08/2020 03:20:29 ( 22.68, 147.42)
25 12/08/2020 15:48:46 ( 22.69, 147.66) 12/08/2020 15:52:22 ( 10.01, 144.65)
26 12/09/2020 02:57:51 ( 10.01, 155.19) 12/09/2020 03:01:27 ( 22.69, 152.18)
27 12/09/2020 15:29:43 ( 22.68, 152.42) 12/09/2020 15:33:18 ( 10.05, 149.42)
28 12/10/2020 02:38:48 ( 10.03, 159.95) 12/10/2020 02:42:23 ( 22.65, 156.95)
29 12/10/2020 15:10:41 ( 22.66, 157.17) 12/10/2020 15:14:16 ( 10.04, 154.17)
30 12/11/2020 02:19:46 ( 10.04, 164.71) 12/11/2020 02:23:21 ( 22.66, 161.71)
31 12/11/2020 14:51:39 ( 22.65, 161.93) 12/11/2020 14:55:14 ( 10.03, 158.93)
